• In Hungary
  • List of Countries
  • For 7 days
  • Water Temperature
  • Satellite Maps
  • Weather Map
  • News
  • Weather Widgets
  • user-avatar
    Login

    Hourly Weather Godow

    Today, 16 December, Saturday

    Time Temperature Precipitation Wind Pressure Humidity
    00:00 +2°C° 0 mm 1 mps 732 mmHg 82%
    01:00 +1°C° 0 mm 0 mps 732 mmHg 83%
    02:00 +2°C° 0 mm 1 mps 732 mmHg 83%
    03:00 +2°C° 0 mm 1 mps 732 mmHg 83%
    04:00 +2°C° 0 mm 1 mps 732 mmHg 84%
    05:00 +2°C° 0 mm 1 mps 732 mmHg 84%
    06:00 +1°C° 0 mm 1 mps 732 mmHg 84%
    07:00 +1°C° 0 mm 1 mps 732 mmHg 81%
    08:00 +2°C° 0 mm 1 mps 733 mmHg 79%
    09:00 +2°C° 0 mm 1 mps 733 mmHg 76%
    10:00 +3°C° 0 mm 1 mps 734 mmHg 74%
    11:00 +3°C° 0 mm 1 mps 734 mmHg 72%
    12:00 +3°C° 0 mm 1 mps 735 mmHg 71%
    13:00 +3°C° 0 mm 2 mps 735 mmHg 69%
    14:00 +2°C° 0 mm 2 mps 736 mmHg 72%
    15:00 +3°C° 0 mm 1 mps 736 mmHg 75%
    16:00 +2°C° 0 mm 1 mps 737 mmHg 78%
    17:00 +2°C° 0 mm 1 mps 738 mmHg 80%
    18:00 +2°C° 0 mm 1 mps 738 mmHg 81%
    19:00 +1°C° 0 mm 2 mps 739 mmHg 82%
    20:00 -1°C° 0 mm 2 mps 739 mmHg 83%
    21:00 -1°C° 0 mm 2 mps 739 mmHg 84%
    22:00 -1°C° 0 mm 2 mps 740 mmHg 85%
    23:00 -1°C° 0 mm 2 mps 740 mmHg 85%

    Tomorrow, 17 December, Sunday

    Time Temperature Precipitation Wind Pressure Humidity
    00:00 -1°C° 0 mm 2 mps 741 mmHg 85%
    01:00 -1°C° 0 mm 2 mps 741 mmHg 85%
    02:00 -1°C° 0 mm 2 mps 741 mmHg 85%
    03:00 -1°C° 0 mm 2 mps 741 mmHg 85%
    04:00 -1°C° 0 mm 2 mps 742 mmHg 85%
    05:00 -1°C° 0.1 mm 2 mps 742 mmHg 86%
    06:00 -1°C° 0.1 mm 2 mps 742 mmHg 87%
    07:00 -1°C° 0.1 mm 2 mps 742 mmHg 88%
    08:00 +1°C° 0.1 mm 2 mps 743 mmHg 86%
    09:00 +1°C° 0.1 mm 2 mps 743 mmHg 84%
    10:00 +1°C° 0.1 mm 2 mps 744 mmHg 82%
    11:00 +2°C° 0.1 mm 2 mps 744 mmHg 79%
    12:00 +2°C° 0.1 mm 2 mps 744 mmHg 77%
    13:00 +3°C° 0.1 mm 2 mps 744 mmHg 75%
    14:00 +2°C° 0.2 mm 2 mps 744 mmHg 78%
    15:00 +2°C° 0.2 mm 1 mps 745 mmHg 82%
    16:00 +2°C° 0.2 mm 1 mps 745 mmHg 86%
    17:00 +2°C° 0.3 mm 1 mps 745 mmHg 87%
    18:00 +1°C° 0.3 mm 1 mps 746 mmHg 89%
    19:00 +1°C° 0.3 mm 1 mps 746 mmHg 90%
    20:00 +1°C° 0.4 mm 1 mps 747 mmHg 91%
    21:00 -1°C° 0.4 mm 2 mps 747 mmHg 92%
    22:00 -1°C° 0.4 mm 2 mps 747 mmHg 93%
    23:00 -2°C° 0.2 mm 2 mps 748 mmHg 93%

    Day after tomorrow, 18 December, Monday

    Time Temperature Precipitation Wind Pressure Humidity
    00:00 -2°C° 0.2 mm 2 mps 748 mmHg 93%
    01:00 -2°C° 0.2 mm 2 mps 748 mmHg 93%
    02:00 -2°C° 0.1 mm 2 mps 748 mmHg 93%
    03:00 -3°C° 0.1 mm 2 mps 748 mmHg 93%
    04:00 -1°C° 0.1 mm 1 mps 748 mmHg 93%
    05:00 -1°C° 0 mm 1 mps 748 mmHg 93%
    06:00 -1°C° 0 mm 1 mps 748 mmHg 93%
    07:00 -2°C° 0 mm 1 mps 749 mmHg 93%
    08:00 -1°C° 0 mm 1 mps 749 mmHg 90%
    09:00 0°C° 0 mm 1 mps 749 mmHg 87%
    10:00 0°C° 0 mm 1 mps 749 mmHg 85%
    11:00 +1°C° 0 mm 1 mps 749 mmHg 82%
    12:00 0°C° 0 mm 0 mps 749 mmHg 79%
    13:00 +1°C° 0 mm 0 mps 749 mmHg 76%
    14:00 0°C° 0 mm 0 mps 749 mmHg 79%
    15:00 -1°C° 0 mm 0 mps 749 mmHg 82%
    16:00 -1°C° 0 mm 1 mps 749 mmHg 85%
    17:00 -2°C° 0 mm 0 mps 750 mmHg 86%
    18:00 -2°C° 0 mm 0 mps 750 mmHg 87%
    19:00 -3°C° 0 mm 0 mps 750 mmHg 88%
    20:00 -3°C° 0 mm 0 mps 751 mmHg 88%
    21:00 -3°C° 0 mm 0 mps 751 mmHg 88%
    22:00 -3°C° 0 mm 0 mps 751 mmHg 88%
    23:00 -3°C° 0 mm 0 mps 752 mmHg 88%

    19 December, Tuesday

    Time Temperature Precipitation Wind Pressure Humidity
    00:00 -3°C° 0 mm 0 mps 752 mmHg 88%
    01:00 -3°C° 0 mm 0 mps 752 mmHg 88%
    02:00 -3°C° 0 mm 0 mps 752 mmHg 88%
    03:00 -2°C° 0 mm 1 mps 752 mmHg 88%
    04:00 -2°C° 0 mm 1 mps 752 mmHg 88%
    05:00 -2°C° 0 mm 1 mps 753 mmHg 87%
    06:00 -2°C° 0 mm 1 mps 753 mmHg 87%
    07:00 -2°C° 0 mm 1 mps 753 mmHg 87%
    08:00 -2°C° 0 mm 1 mps 753 mmHg 84%
    09:00 -1°C° 0 mm 1 mps 753 mmHg 81%
    10:00 0°C° 0 mm 1 mps 754 mmHg 78%
    11:00 0°C° 0 mm 1 mps 753 mmHg 75%
    12:00 +1°C° 0 mm 1 mps 753 mmHg 73%
    13:00 +2°C° 0 mm 1 mps 753 mmHg 70%
    14:00 +1°C° 0 mm 1 mps 752 mmHg 74%
    15:00 +1°C° 0 mm 1 mps 752 mmHg 78%
    16:00 -2°C° 0 mm 2 mps 752 mmHg 83%
    17:00 -2°C° 0.4 mm 2 mps 752 mmHg 85%
    18:00 -2°C° 0.4 mm 2 mps 752 mmHg 88%
    19:00 -1°C° 0.4 mm 2 mps 751 mmHg 91%
    20:00 +1°C° 0.3 mm 1 mps 751 mmHg 92%
    21:00 +1°C° 0.3 mm 1 mps 752 mmHg 92%
    22:00 +1°C° 0.3 mm 1 mps 752 mmHg 93%
    23:00 +1°C° 0.1 mm 1 mps 752 mmHg 93%

    20 December, Wednesday

    Time Temperature Precipitation Wind Pressure Humidity
    00:00 +1°C° 0.1 mm 1 mps 751 mmHg 93%
    01:00 +1°C° 0.1 mm 1 mps 751 mmHg 93%
    02:00 0°C° 0 mm 1 mps 752 mmHg 93%
    03:00 0°C° 0 mm 1 mps 752 mmHg 93%
    04:00 0°C° 0 mm 1 mps 752 mmHg 93%
    05:00 0°C° 0 mm 1 mps 752 mmHg 93%
    06:00 0°C° 0 mm 1 mps 752 mmHg 93%
    07:00 -1°C° 0 mm 1 mps 752 mmHg 93%
    08:00 -1°C° 0 mm 0 mps 753 mmHg 90%
    09:00 -1°C° 0 mm 0 mps 753 mmHg 88%
    10:00 0°C° 0 mm 0 mps 753 mmHg 86%
    11:00 +1°C° 0 mm 1 mps 753 mmHg 85%
    12:00 +2°C° 0 mm 1 mps 753 mmHg 83%
    13:00 +2°C° 0 mm 1 mps 753 mmHg 82%
    14:00 +1°C° 0 mm 1 mps 753 mmHg 85%
    15:00 +1°C° 0 mm 1 mps 752 mmHg 87%
    16:00 0°C° 0 mm 1 mps 752 mmHg 90%
    17:00 0°C° 0 mm 1 mps 753 mmHg 90%
    18:00 -1°C° 0 mm 1 mps 753 mmHg 90%
    19:00 -1°C° 0 mm 1 mps 753 mmHg 91%
    20:00 -3°C° 0 mm 2 mps 753 mmHg 91%
    21:00 -3°C° 0 mm 2 mps 753 mmHg 90%
    22:00 -3°C° 0 mm 2 mps 753 mmHg 90%
    23:00 -2°C° 0 mm 2 mps 753 mmHg 90%

    21 December, Thursday

    Time Temperature Precipitation Wind Pressure Humidity
    00:00 -2°C° 0 mm 2 mps 753 mmHg 90%
    01:00 -2°C° 0 mm 2 mps 752 mmHg 90%
    02:00 -2°C° 0 mm 2 mps 752 mmHg 90%
    03:00 -2°C° 0 mm 2 mps 752 mmHg 90%
    04:00 -2°C° 0 mm 2 mps 752 mmHg 89%
    05:00 -1°C° 0.2 mm 2 mps 752 mmHg 89%
    06:00 -1°C° 0.2 mm 2 mps 752 mmHg 89%
    07:00 -1°C° 0.2 mm 2 mps 752 mmHg 89%
    08:00 -1°C° 0.4 mm 3 mps 752 mmHg 89%
    09:00 -1°C° 0.4 mm 3 mps 752 mmHg 90%
    10:00 0°C° 0.4 mm 3 mps 752 mmHg 90%
    11:00 0°C° 0.3 mm 3 mps 752 mmHg 91%
    12:00 0°C° 0.3 mm 3 mps 751 mmHg 91%
    13:00 0°C° 0.3 mm 3 mps 751 mmHg 91%
    14:00 0°C° 0.4 mm 3 mps 751 mmHg 92%
    15:00 +1°C° 0.4 mm 3 mps 751 mmHg 92%
    16:00 +1°C° 0.4 mm 3 mps 751 mmHg 93%
    17:00 +1°C° 0.5 mm 3 mps 750 mmHg 93%
    18:00 +1°C° 0.5 mm 3 mps 750 mmHg 94%
    19:00 +1°C° 0.5 mm 3 mps 750 mmHg 94%
    20:00 +1°C° 0.6 mm 3 mps 750 mmHg 95%
    21:00 +2°C° 0.6 mm 3 mps 750 mmHg 95%
    22:00 +2°C° 0.6 mm 3 mps 749 mmHg 96%
    23:00 +2°C° 0.6 mm 3 mps 749 mmHg 96%
    Show more